Cloud_Cover
0 0 0 0 0 0 0 0 0 0 0 0 4 0 1 0 0 0 0 0 0 5 63 81 57 65 94 81 96 98 100 71 67 93 100 42 93 86 78 71 20 5 39 37
0 0 0 0 0 0 0 0 0 0 0 67 6 0 45 0 0 0 0 0 0 81 83 97 40 96 97 70 100 100 83 56 40 100 84 38 40 99 63 53 29 42 28 63
0 0 0 0 0 0 0 0 0 5 5 0 0 0 0 0 0 0 0 1 20 40 51 89 100 100 100 100 100 100 100 100 65 60 44 32 45 36 71 77 26 53 100 100
0 0 0 0 0 0 0 2 0 0 0 0 0 0 0 0 4 1 0 27 40 69 78 100 100 100 100 100 100 100 100 88 96 93 100 95 56 72 77 100 100 100 100 100
0 0 0 0 2 0 2 2 0 0 0 0 0 0 46 2 15 0 0 83 98 100 100 100 100 100 100 100 100 100 100 100 100 100 100 100 100 100 100 100 100 100 100 100
0 2 0 2 5 0 0 2 5 0 0 0 0 5 5 1 49 45 38 100 100 100 100 100 100 100 100 100 100 100 100 100 100 100 100 100 100 100 100 100 100 100 100 100
2 4 26 8 3 4 5 30 4 1 0 0 0 0 0 17 87 6 90 100 100 100 100 100 100 100 100 100 100 100 100 100 100 100 100 100 100 100 100 100 100 100 100 100
38 43 58 12 7 25 47 50 6 5 5 0 0 6 14 56 94 10 100 100 100 100 100 100 100 100 100 100 100 100 100 100 100 100 100 100 100 100 100 100 100 100 99 100
5 62 72 85 22 5 9 88 96 5 5 5 3 8 26 3 55 100 100 100 100 100 100 100 100 100 100 100 100 100 100 100 100 100 100 100 100 100 100 100 100 100 100 99
53 99 100 30 6 90 100 46 13 31 17 3 0 1 12 6 20 100 100 100 100 100 100 100 100 100 100 100 100 100 100 100 100 100 100 100 100 100 100 100 100 99 42 98
5 96 15 97 100 97 80 15 5 6 4 0 0 0 9 100 100 100 100 100 100 100 100 100 100 100 100 100 100 100 100 100 100 100 100 100 100 100 100 100 100 100 100 100
5 4 5 100 14 5 5 5 0 5 4 0 0 1 42 100 100 100 100 100 100 100 100 100 96 100 100 100 100 100 100 100 100 100 100 100 100 100 100 100 100 100 100 100
5 0 42 95 5 5 5 0 2 5 0 0 0 0 100 100 100 100 100 100 100 100 100 100 100 100 86 100 100 100 100 100 100 100 100 100 100 100 100 100 100 100 100 100
1 5 5 5 5 0 0 0 5 5 0 0 0 0 14 85 100 100 100 100 100 100 100 100 100 100 100 100 100 100 100 100 100 100 100 100 100 100 100 100 100 100 100 100
0 0 3 4 4 0 0 1 5 5 0 3 5 0 17 33 90 100 100 100 76 73 100 100 100 100 100 100 100 100 100 100 100 100 100 100 100 100 100 100 100 100 100 100
0 0 0 0 0 0 0 0 5 5 1 5 5 0 17 53 17 100 100 100 100 34 100 100 100 100 100 100 100 100 100 100 100 100 100 100 100 100 100 100 100 100 100 100
0 1 3 0 0 8 6 2 1 2 5 5 5 21 97 100 94 100 100 100 100 86 95 100 100 100 100 100 100 100 100 100 100 100 100 100 100 100 100 100 100 100 100 100
0 0 0 0 1 0 5 29 39 15 6 5 7 44 100 68 100 100 100 100 100 87 71 97 100 100 100 98 100 100 100 100 100 100 100 100 100 100 100 100 100 100 100 100
5 4 1 0 5 5 5 6 5 6 5 53 22 16 84 92 100 100 100 100 98 87 100 100 98 86 100 100 98 100 100 84 100 100 100 100 100 100 100 100 82 100 93 83
5 5 5 5 5 12 30 47 18 10 45 39 8 16 74 100 100 100 83 100 94 100 100 100 100 100 100 100 87 99 100 100 100 83 88 99 57 24 45 100 99 73 54 22
88 67 98 76 96 100 99 73 56 90 100 100 100 95 100 100 100 100 100 100 100 100 100 100 100 100 100 100 100 88 92 55 81 100 91 92 98 79 70 85 83 66 75 69
74 50 99 100 100 100 42 59 91 100 100 100 100 100 100 100 100 100 100 100 100 86 100 100 100 100 100 100 57 38 46 76 39 61 48 6 5 5 5 8 81 100 100 100
62 62 98 100 100 98 100 95 100 100 100 100 100 100 100 100 98 100 100 96 100 100 100 100 100 100 100 94 91 99 61 86 89 94 87 84 90 78 51 50 21 100 68 100
100 100 100 88 100 100 100 100 100 100 100 100 100 100 100 100 100 94 80 60 21 11 13 12 63 76 100 100 94 100 99 12 9 1 5 5 5 5 6 21 60 92 63 90
73 91 98 88 44 100 93 100 99 95 100 100 100 100 100 100 63 74 100 87 80 90 72 5 5 5 5 4 4 0 0 0 4 1 2 3 2 4 5 4 35 53 67 51
60 23 46 89 71 79 93 95 100 100 100 100 100 100 100 100 90 96 100 99 97 96 96 98 100 100 64 20 13 10 5 5 5 5 3 0 0 0 0 0 2 1 2 14
89 34 6 11 56 56 51 85 100 100 100 100 100 100 100 100 98 90 69 92 94 62 32 16 9 12 16 13 8 2 0 0 0 0 0 4 2 5 5 5 5 5 5 5